Shawbury, United Kingdom

1:23 PM GMT on January 17, 2018 (GMT +0000)
Shawbury Air Base

Weather History for EGOS - October, 2013

Change the Weather History Date:

Thursday, October 24, 2013

  Actual Average Record
Temperature  
Mean Temperature 48 °F -  
Max Temperature 58 °F 48 °F 64 °F (1996)
Min Temperature 37 °F 38 °F 30 °F (2007)
Degree Days  
Heating Degree Days 18    
Moisture  
Dew Point 47 °F    
Average Humidity 88    
Maximum Humidity 100    
Minimum Humidity 71    
Precipitation  
Precipitation 0.00 in - - ()
Sea Level Pressure  
Sea Level Pressure 29.87 in    
Wind  
Wind Speed 4 mph ()    
Max Wind Speed 12 mph    
Max Gust Speed -    
Visibility 7.6 miles    
Events      
Averages and records for this station are not official NWS values.
T = Trace of Precipitation, MM = Missing Value Source: Averaged Metar Reports

Daily Weather History Graph

Daily Weather History Graph

Search for Another Location

Airport or City:

Trip Planner

Search our weather history database for the weather conditions in past years. The results will help you decide how hot, cold, wet, or windy it might be!

Date:

Astronomy

Oct. 24, 2013 Rise Set
Actual Time 7:53 AM BST 5:55 PM BST
Civil Twilight 7:17 AM BST 6:31 PM BST
Nautical Twilight 6:37 AM BST 7:11 PM BST
Astronomical Twilight 5:57 AM BST 7:50 PM BST
Moon 9:48 PM BST (10/24) 1:03 PM BST (10/24)
Length of Visible Light 11h 13m
Length of Day
10h 02m
Waning Gibbous, 73% of the Moon is Illuminated
Oct 24
Waning Gibbous
Oct 27
Last Quarter
Nov 3
New
Nov 10
First Quarter
Nov 17
Full

Hourly Weather History & Observations

Time (BST) Temp. Windchill Dew Point Humidity Pressure Visibility Wind Dir Wind Speed Gust Speed Precip Events Conditions
12:50 AM 37.4 °F - 35.6 °F 93% 29.80 in 6.2 mi SW 2.3 mph - N/A   Unknown
1:00 AM 38 °F - 36 °F 87% 29.83 in 11 mi SW 2.3 mph - -  
1:50 AM 41.0 °F - 41.0 °F 100% 29.83 in 6.2 mi WSW 1.2 mph - N/A   Partly Cloudy
2:50 AM 42.8 °F - 41.0 °F 93% 29.83 in 6.2 mi SSW 1.2 mph - N/A   Mostly Cloudy
3:50 AM 44.6 °F - 42.8 °F 93% 29.83 in 6.2 mi Calm Calm - N/A   Mostly Cloudy
4:00 AM 44 °F - 43 °F 95% 29.86 in 15 mi Calm Calm - -   Mostly Cloudy
4:50 AM 42.8 °F - 42.8 °F 100% 29.86 in 6.2 mi NW 1.2 mph - N/A   Mostly Cloudy
5:50 AM 44.6 °F 43.1 °F 44.6 °F 100% 29.86 in 6.2 mi WSW 3.5 mph - N/A   Mostly Cloudy
6:50 AM 46.4 °F 45.2 °F 44.6 °F 93% 29.86 in 6.2 mi South 3.5 mph - N/A   Mostly Cloudy
7:00 AM 47 °F - 45 °F 91% 29.88 in 16 mi South 3.5 mph - -   Mostly Cloudy
7:50 AM 48.2 °F - 46.4 °F 93% 29.89 in 6.2 mi South 5.8 mph - N/A   Partly Cloudy
8:50 AM 44.6 °F - 44.6 °F 100% 29.92 in 6.2 mi ENE 2.3 mph - N/A   Partly Cloudy
9:50 AM 50.0 °F - 46.4 °F 87% 29.92 in 6.2 mi ESE 2.3 mph - N/A   Partly Cloudy
10:00 AM 49 °F - 46 °F 86% 29.94 in 25 mi ESE 2.3 mph - -   Scattered Clouds
10:50 AM 51.8 °F - 46.4 °F 82% 29.92 in 6.2 mi East 5.8 mph - N/A   Partly Cloudy
11:50 AM 55.4 °F - 48.2 °F 77% 29.92 in 6.2 mi ESE 6.9 mph - N/A   Partly Cloudy
12:31 PM 53.6 °F - 50.0 °F 88% 29.92 in 6.2 mi SSE 11.5 mph - N/A   Scattered Clouds
12:50 PM 51.8 °F - 50.0 °F 94% 29.92 in 6.2 mi South 11.5 mph - N/A   Mostly Cloudy
1:00 PM 53 °F - 49 °F 83% 29.93 in 9 mi South 11.5 mph - -   Mostly Cloudy
1:50 PM 55.4 °F - 51.8 °F 88% 29.89 in 6.2 mi South 5.8 mph - N/A   Scattered Clouds
2:31 PM 57.2 °F - 51.8 °F 82% 29.89 in 6.2 mi SE 5.8 mph - N/A   Scattered Clouds
2:50 PM 59.0 °F - 50.0 °F 72% 29.89 in 6.2 mi SE 8.1 mph - N/A   Mostly Cloudy
3:50 PM 57.2 °F - 51.8 °F 82% 29.89 in 6.2 mi ESE 6.9 mph - N/A   Mostly Cloudy
4:00 PM 58 °F - 51 °F 71% 29.89 in 17 mi ESE 6.9 mph - -   Partly Cloudy
4:50 PM 57.2 °F - 51.8 °F 82% 29.86 in 6.2 mi East 4.6 mph - N/A   Mostly Cloudy
5:50 PM 55.4 °F - 51.8 °F 88% 29.86 in 6.2 mi East 6.9 mph - N/A   Mostly Cloudy
6:50 PM 55.4 °F - 50.0 °F 82% 29.86 in 6.2 mi East 5.8 mph - N/A   Mostly Cloudy
7:00 PM 54 °F - 51 °F 84% 29.86 in 12 mi East 5.8 mph - -   Partly Cloudy
7:50 PM 53.6 °F - 50.0 °F 88% 29.83 in 6.2 mi East 6.9 mph - N/A   Mostly Cloudy
8:50 PM 53.6 °F - 50.0 °F 88% 29.83 in 6.2 mi East 8.1 mph - N/A   Mostly Cloudy
9:50 PM 53.6 °F - 50.0 °F 88% 29.80 in 6.2 mi East 9.2 mph - N/A   Overcast
10:00 PM 54 °F - 50 °F 82% 29.81 in 11 mi East 9.2 mph - -   Overcast
10:50 PM 53.6 °F - 50.0 °F 88% 29.77 in 6.2 mi ESE 8.1 mph - N/A   Mostly Cloudy
11:50 PM 53.6 °F - 50.0 °F 88% 29.77 in 6.2 mi East 5.8 mph - N/A   Mostly Cloudy